Weather History for KMIV - April, 2014

Change the Weather History Date:

Tuesday, April 22, 2014

  Actual Average Record
Temperature  
Mean Temperature 54 °F -  
Max Temperature 73 °F 65 °F 91 °F (1985)
Min Temperature 37 °F 44 °F 29 °F (1953)
Degree Days  
Heating Degree Days 10    
Growing Degree Days 4 (Base 50)    
Moisture  
Dew Point 46 °F    
Average Humidity 71    
Maximum Humidity 97    
Minimum Humidity 40    
Precipitation  
Precipitation 0.00 in - - ()
Sea Level Pressure  
Sea Level Pressure 29.69 in    
Wind  
Wind Speed 3 mph (WSW)    
Max Wind Speed 12 mph    
Max Gust Speed -    
Visibility 10 miles    
Events Rain    
Averages and records for this station are not official NWS values.
T = Trace of Precipitation, MM = Missing Value Source: NWS Daily Summary

Daily Weather History Graph

Daily Weather History Graph

Search for Another Location

Airport or City:

Trip Planner

Search our weather history database for the weather conditions in past years. The results will help you decide how hot, cold, wet, or windy it might be!

Date:

Astronomy

Apr. 22, 2014 Rise Set
Actual Time 6:13 AM EDT 7:44 PM EDT
Civil Twilight 5:45 AM EDT 8:13 PM EDT
Nautical Twilight 5:11 AM EDT 8:47 PM EDT
Astronomical Twilight 4:35 AM EDT 9:23 PM EDT
Moon 1:58 AM EDT (4/22) 12:45 PM EDT (4/22)
Length of Visible Light 14h 28m
Length of Day
13h 31m
Last Quarter, 46% of the Moon is Illuminated
Apr 22
Last Quarter
Apr 29
New
May 6
First Quarter
May 14
Full
May 21
Last Quarter

Hourly Weather History & Observations

Time (EDT) Temp. Dew Point Humidity Pressure Visibility Wind Dir Wind Speed Gust Speed Precip Events Conditions
12:54 AM 41.0 °F 39.9 °F 96% 29.89 in 10.0 mi Calm Calm - N/A   Clear
1:54 AM 39.0 °F 37.0 °F 93% 29.87 in 10.0 mi Calm Calm - N/A   Clear
2:54 AM 39.0 °F 37.9 °F 96% 29.83 in 10.0 mi Calm Calm - N/A   Clear
3:54 AM 37.9 °F 36.0 °F 93% 29.83 in 10.0 mi Calm Calm - N/A   Clear
4:54 AM 37.9 °F 37.0 °F 97% 29.80 in 10.0 mi Calm Calm - N/A   Clear
6:54 AM 42.1 °F 39.9 °F 92% 29.78 in 10.0 mi Calm Calm - N/A   Clear
7:54 AM 50.0 °F 48.0 °F 93% 29.77 in 10.0 mi Calm Calm - N/A   Clear
8:54 AM 55.0 °F 48.9 °F 80% 29.75 in 10.0 mi Variable 4.6 mph - N/A   Clear
9:54 AM 62.1 °F 48.0 °F 60% 29.73 in 10.0 mi South 9.2 mph - N/A   Clear
10:54 AM 64.0 °F 46.9 °F 54% 29.71 in 10.0 mi SW 9.2 mph - N/A   Clear
11:54 AM 66.0 °F 46.9 °F 50% 29.68 in 10.0 mi SW 8.1 mph - N/A   Clear
12:54 PM 69.1 °F 46.0 °F 44% 29.64 in 10.0 mi SW 10.4 mph - N/A   Clear
1:54 PM 72.0 °F 46.9 °F 41% 29.62 in 10.0 mi Variable 4.6 mph - N/A   Scattered Clouds
2:54 PM 72.0 °F 46.0 °F 40% 29.60 in 10.0 mi SW 9.2 mph - N/A   Mostly Cloudy
3:54 PM 70.0 °F 46.9 °F 44% 29.60 in 10.0 mi WSW 6.9 mph - N/A   Mostly Cloudy
4:54 PM 69.1 °F 53.1 °F 57% 29.60 in 10.0 mi West 9.2 mph - 0.00 in Rain Light Rain
5:54 PM 64.9 °F 54.0 °F 68% 29.58 in 10.0 mi West 11.5 mph - 0.00 in   Overcast
6:54 PM 64.0 °F 54.0 °F 70% 29.57 in 10.0 mi WSW 6.9 mph - N/A   Overcast
7:54 PM 63.0 °F 54.0 °F 72% 29.58 in 10.0 mi WSW 4.6 mph - N/A   Clear
8:54 PM 61.0 °F 46.9 °F 60% 29.61 in 10.0 mi NW 9.2 mph - 0.00 in Rain Light Rain
9:54 PM 52.0 °F 46.9 °F 83% 29.61 in 10.0 mi Calm Calm - 0.00 in   Clear
10:54 PM 51.1 °F 46.0 °F 83% 29.60 in 10.0 mi West 5.8 mph - N/A   Partly Cloudy
11:54 PM 55.9 °F 46.9 °F 72% 29.57 in 10.0 mi West 5.8 mph - N/A   Clear